Weather History for Bastia, France

Change the Weather History Date:

Wednesday, February 12, 2014

  Actual Average Record
Temperature  
Mean Temperature 52 °F -  
Max Temperature 61 °F 56 °F 61 °F (2014)
Min Temperature 44 °F 40 °F 44 °F (2014)
Degree Days  
Heating Degree Days 12    
Growing Degree Days 2 (Base 50)    
Moisture  
Dew Point 38 °F    
Average Humidity 59    
Maximum Humidity 81    
Minimum Humidity 33    
Precipitation  
Precipitation 0.00 in - - ()
Sea Level Pressure  
Sea Level Pressure 29.78 in    
Wind  
Wind Speed 6 mph ()    
Max Wind Speed 13 mph    
Max Gust Speed -    
Visibility 7.1 miles    
Events      
Averages and records for this station are not official NWS values.
T = Trace of Precipitation, MM = Missing Value Source: Averaged Metar Reports

Daily Weather History Graph

Daily Weather History Graph

Search for Another Location

Airport:

Trip Planner

Search our weather history database for the weather conditions in past years. The results will help you decide how hot, cold, wet, or windy it might be!

Date:

Astronomy

Feb. 12, 2014 Rise Set
Actual Time 7:23 AM CET 5:49 PM CET
Civil Twilight 6:54 AM CET 6:19 PM CET
Nautical Twilight 6:21 AM CET 6:52 PM CET
Astronomical Twilight 5:48 AM CET 7:24 PM CET
Moon 3:47 PM CET (2/12) 5:30 AM CET (2/12)
Length of Visible Light 11h 24m
Length of Day
10h 26m
Waxing Gibbous, 94% of the Moon is Illuminated
Feb 12
Waxing Gibbous
Feb 15
Full
Feb 22
Last Quarter
Mar 1
New
Mar 8
First Quarter

Hourly Weather History & Observations

Time (CET) Temp. Windchill Dew Point Humidity Pressure Visibility Wind Dir Wind Speed Gust Speed Precip Events Conditions
12:00 AM 46 °F - 39 °F 70% 29.70 in 37 mi SW 6.9 mph - -   Clear
12:00 AM 46.4 °F 42.9 °F 39.2 °F 76% 29.68 in 6.2 mi SW 6.9 mph - N/A   Unknown
12:30 AM 48.2 °F - 39.2 °F 71% 29.68 in 6.2 mi Variable 4.6 mph - N/A   Unknown
1:00 AM 47 °F - 38 °F 63% 29.70 in 37 mi WSW 3.5 mph - -   Clear
1:00 AM 48.2 °F - 39.2 °F 71% 29.68 in 6.2 mi Variable 3.5 mph - N/A   Unknown
1:30 AM 48.2 °F - 39.2 °F 71% 29.68 in 6.2 mi WSW 5.8 mph - N/A   Unknown
2:00 AM 48 °F - 37 °F 57% 29.71 in 37 mi West 4.6 mph - -   Clear
2:00 AM 48.2 °F - 37.4 °F 66% 29.68 in 6.2 mi West 4.6 mph - N/A   Unknown
2:30 AM 48.2 °F - 37.4 °F 66% 29.68 in 6.2 mi West 5.8 mph - N/A   Unknown
3:00 AM 49 °F - 38 °F 57% 29.70 in 25 mi WSW 9.2 mph - -   Scattered Clouds
3:00 AM 48.2 °F - 37.4 °F 66% 29.68 in 6.2 mi WSW 8.1 mph - N/A   Partly Cloudy
3:19 AM 50.0 °F - 37.4 °F 62% 29.68 in 6.2 mi WSW 6.9 mph - N/A   Partly Cloudy
3:30 AM 48.2 °F - 37.4 °F 66% 29.68 in 6.2 mi WSW 5.8 mph - N/A   Partly Cloudy
4:00 AM 47 °F - 38 °F 61% 29.70 in 25 mi SE 4.6 mph - -   Scattered Clouds
4:00 AM 46.4 °F 45.2 °F 37.4 °F 71% 29.68 in 6.2 mi SE 3.5 mph - N/A   Scattered Clouds
4:30 AM 48.2 °F - 37.4 °F 66% 29.68 in 6.2 mi South 8.1 mph - N/A   Scattered Clouds
5:00 AM 47 °F - 37 °F 57% 29.70 in 25 mi South 5.8 mph - -   Scattered Clouds
5:00 AM 48.2 °F - 37.4 °F 66% 29.68 in 6.2 mi South 5.8 mph - N/A   Mostly Cloudy
5:30 AM 48.2 °F - 37.4 °F 66% 29.68 in 6.2 mi SSW 10.4 mph - N/A   Mostly Cloudy
6:00 AM 49 °F - 36 °F 49% 29.71 in 25 mi SW 10.4 mph - -   Scattered Clouds
6:00 AM 48.2 °F - 35.6 °F 62% 29.68 in 6.2 mi SSW 10.4 mph - N/A   Mostly Cloudy
6:30 AM 48.2 °F - 35.6 °F 62% 29.71 in 6.2 mi SW 9.2 mph - N/A   Mostly Cloudy
7:00 AM 49 °F - 32 °F 40% 29.73 in 25 mi WNW 8.1 mph - -   Scattered Clouds
7:00 AM 46.4 °F 41.9 °F 35.6 °F 66% 29.71 in 6.2 mi West 9.2 mph - N/A   Mostly Cloudy
7:30 AM 46.4 °F - 33.8 °F 62% 29.71 in 6.2 mi Calm Calm - N/A   Mostly Cloudy
8:00 AM 46 °F - 35 °F 56% 29.75 in 25 mi SSW 5.8 mph - -   Scattered Clouds
8:00 AM 46.4 °F 43.5 °F 35.6 °F 66% 29.74 in 6.2 mi SSW 5.8 mph - N/A   Mostly Cloudy
8:30 AM 48.2 °F - 37.4 °F 66% 29.74 in 6.2 mi SW 10.4 mph - N/A   Mostly Cloudy
9:00 AM 48 °F - 37 °F 57% 29.76 in 31 mi SSW 9.2 mph - -   Clear
9:00 AM 48.2 °F - 37.4 °F 66% 29.74 in 6.2 mi SSW 9.2 mph - N/A   Mostly Cloudy
9:30 AM 50.0 °F - 37.4 °F 62% 29.77 in 6.2 mi SW 6.9 mph - N/A   Mostly Cloudy
10:00 AM 51 °F - 37 °F 47% 29.78 in 25 mi SSW 8.1 mph - -   Scattered Clouds
10:00 AM 51.8 °F - 37.4 °F 58% 29.77 in - SSW 8.1 mph - N/A   Clear
10:30 AM 51.8 °F - 37.4 °F 58% 29.77 in - SW 10.4 mph - N/A   Clear
11:00 AM 53 °F - 38 °F 47% 29.79 in 25 mi SSW 8.1 mph - -   Scattered Clouds
11:00 AM 53.6 °F - 39.2 °F 58% 29.77 in - SW 8.1 mph - N/A   Clear
11:30 AM 55.4 °F - 37.4 °F 51% 29.77 in - SSW 4.6 mph - N/A   Clear
12:00 PM 59 °F - 40 °F 37% 29.80 in 25 mi South 3.5 mph - -   Scattered Clouds
12:00 PM 59.0 °F - 41.0 °F 51% 29.77 in - Variable 3.5 mph - N/A   Clear
12:30 PM 59.0 °F - 42.8 °F 55% 29.77 in - Variable 3.5 mph - N/A   Clear
1:00 PM 60 °F - 38 °F 33% 29.80 in 25 mi NE 4.6 mph - -   Scattered Clouds
1:00 PM 59.0 °F - 41.0 °F 51% 29.80 in - Variable 5.8 mph - N/A   Clear
1:30 PM 59.0 °F - 44.6 °F 59% 29.77 in 6.2 mi ENE 9.2 mph - N/A   Scattered Clouds
2:00 PM 59 °F - 40 °F 37% 29.80 in 25 mi East 6.9 mph - -   Scattered Clouds
2:00 PM 59.0 °F - 42.8 °F 55% 29.80 in 6.2 mi East 8.1 mph - N/A   Scattered Clouds
2:30 PM 60.8 °F - 41.0 °F 48% 29.77 in - Variable 5.8 mph - N/A   Clear
3:00 PM 59 °F - 44 °F 46% 29.81 in 25 mi ESE 9.2 mph - -   Clear
3:00 PM 59.0 °F - 44.6 °F 59% 29.80 in - ESE 9.2 mph - N/A   Clear
3:30 PM 59.0 °F - 42.8 °F 55% 29.80 in - SE 8.1 mph - N/A   Clear
4:00 PM 58 °F - 42 °F 45% 29.83 in 25 mi ESE 4.6 mph - -   Scattered Clouds
4:00 PM 59.0 °F - 42.8 °F 55% 29.83 in 6.2 mi ESE 4.6 mph - N/A   Partly Cloudy
4:30 PM 59.0 °F - 44.6 °F 59% 29.83 in 6.2 mi Variable 3.5 mph - N/A   Partly Cloudy
5:00 PM 57 °F - 44 °F 53% 29.85 in 25 mi ESE 3.5 mph - -  
5:00 PM 57.2 °F - 42.8 °F 59% 29.83 in - Calm Calm - N/A   Clear
5:30 PM 55.4 °F - 42.8 °F 63% 29.83 in 6.2 mi SSE 3.5 mph - N/A   Partly Cloudy
6:00 PM 51 °F - 41 °F 60% 29.87 in 25 mi WSW 2.3 mph - -   Scattered Clouds
6:00 PM 51.8 °F - 41.0 °F 67% 29.86 in 6.2 mi Variable 2.3 mph - N/A   Partly Cloudy
6:30 PM 48.2 °F - 39.2 °F 71% 29.89 in 6.2 mi NNW 3.5 mph - N/A   Partly Cloudy
7:00 PM 45 °F - 40 °F 76% 29.90 in 16 mi South 6.9 mph - -   Scattered Clouds
7:00 PM 44.6 °F 41.4 °F 39.2 °F 81% 29.89 in 6.2 mi South 5.8 mph - N/A   Partly Cloudy
7:30 PM 44.6 °F 42.2 °F 39.2 °F 81% 29.89 in 6.2 mi SSW 4.6 mph - N/A   Partly Cloudy
8:00 PM 47 °F - 38 °F 61% 29.91 in 12 mi South 8.1 mph - -  
8:00 PM 46.4 °F 41.9 °F 37.4 °F 71% 29.89 in - South 9.2 mph - N/A   Clear
8:30 PM 48.2 °F - 37.4 °F 66% 29.89 in - SSW 8.1 mph - N/A   Clear
9:00 PM 49 °F - 37 °F 53% 29.92 in 12 mi SSW 11.5 mph - -  
9:00 PM 50.0 °F - 37.4 °F 62% 29.89 in - SW 11.5 mph - N/A   Clear
9:30 PM 48.2 °F - 35.6 °F 62% 29.89 in - South 10.4 mph - N/A   Clear
10:00 PM 48 °F - 34 °F 47% 29.93 in 12 mi SSW 10.4 mph - -  
10:00 PM 48.2 °F - 33.8 °F 58% 29.92 in - SSW 10.4 mph - N/A   Clear
10:30 PM 48.2 °F - 33.8 °F 58% 29.92 in - SW 12.7 mph - N/A   Clear
11:00 PM 48 °F - 33 °F 45% 29.92 in 12 mi SW 11.5 mph - -  
11:06 PM 48.2 °F - 32.0 °F 54% 29.92 in - SW 10.4 mph - N/A   Clear
11:30 PM 46.4 °F 41.9 °F 32.0 °F 57% 29.92 in 6.2 mi SW 9.2 mph - N/A   Partly Cloudy